Tracking 28790 objects as of 19-Apr-2024
HD Live streaming from Space Station
objects crossing your sky now

FENGYUN 1C DEB

Track FENGYUN 1C DEB now!
10-day predictions


NORAD ID: 31324
Int'l Code: 1999-025BQC
Perigee: 816.9 km
Apogee: 888.9 km
Inclination: 99.1 °
Period: 101.8 minutes
Semi major axis: 7223 km
RCS: 0.0129 m2 (small)
Launch date: May 10, 1999
Source: People's Republic of China (PRC)
Launch site: Taiyaun Space Center, China (TSC)

Note: This is SATELLITE DEBRIS
Your satellite tracking list
Your tracking list is empty




NASA's NSSDC Master Catalog

Two Line Element Set (TLE):
1 31324U 99025BQC 24109.54363900  .00000556  00000-0  31346-3 0  9990
2 31324  99.1357  12.2847 0049813 202.7462 157.1502 14.13993975879591
Source of the keplerian elements: AFSPC